Showing default

KUIPER-00289, 68591

Orbit data source: Space-Track

KUIPER-00289, 68591 is a payload satellite owned by Kuiper Systems (US) in LEO that was launched on Sat, 04 Apr 2026 UTC via an ATLAS V 551 launch vehicle from the Air Force Eastern Test Range (AFETR). Payload-class satellites include a variety of spacecraft equipped with specific instruments for various scientific and technological missions. These include communications satellites like Starlink; space stations such as the ISS; scientific satellites like the Hubble; Earth observation satellites from companies like Planet Labs, Umbra, and HawkEye 360; GPS; miniature CubeSats for education and research; and military/defense satellites.

Loading next visibility...
Identifier
68591, 2026-072U
Orbit
LEO
Country
Flag of USUS
Related business
Manufacturer
Kuiper Systems
Mission
Operational spacecraft
Bus & Motor
KUIPER, Unknown motor
Mass
~490 kg wet, ~490 kg dry
Launch date (UTC)
2026-04-04 (2 months ago)
Launch vehicle
ATLAS V 551
Launch site
Air Force Eastern Test Range (AFETR)
Object type
Payload
Rocket body
Debris
Shape & HBR
Unknown shape, 3.4 m
Radar Cross Section
Large (>1 m²)

Expand to show TLE details & history
Last TLE update: 17 hours ago

TLE from 17 hours ago
0 KUIPER-00289
1 68591U 26072U   26149.92045331 -.00000297  00000-0  26611-5 0  9995
2 68591  51.8668 265.6989 0010771 322.7477  37.2761 15.36026470  8567
Epoch: 2026-05-29T22:05Z
TLE epoch observation values (Epoch: 2026-05-29T22:05:27.165Z)
Latitude
-0.00004°
Longitude
46.89177°
Altitude
452.779 km
Speed
7.645 km/s
True Right ascension
17h 42m 47s
True Declination
0° 00' 00"
Sunlit
Object was in full shadow at epoch
Visualization orbit readout
Latitude
Unknown
Longitude
Unknown
Altitude
Unknown
Speed
Unknown
Apparent Right ascension
Unknown
Apparent Declination
Unknown
Sunlit
N/A
Visualization observer readout
Local Sidereal Time
01:02:58
Azimuth
Unknown
Elevation
Unknown
Doppler factor
Unknown
Orbital elements
Apogee altitude
465.705 km
Perigee altitude
450.977 km
Semi-major axis
6,836.478 km
Eccentricity
0.00108
Inclination
51.8668°
RAAN
265.6989°
Arg. of periapsis
322.7477°
True anomaly
37.35093°
Mean anomaly
37.2761°
Eccentric anomaly
37.31351°
Mean motion
3.83968 °/min
Orbital period
93.76 mins
BSTAR
0.0000026611
Loading maneuver chart data...
Computing Atmospheric mass density...
Loading historical data...
Loading historical data...
Loading historical data...
Loading historical data...
Loading historical data...
Loading historical data...
Loading historical data...

Documentation

Showing up to 5 results
|